Location: Fours
(44.3167°N, 6.7000°E)
Time: 19:57:36
(UTC+00:00)

Timation 2 Rocket - Pass Details

Date: 31 May 2022
Orbit: 904 x 1076 km, 70.0° (Epoch: 25 June)

Event Time Altitude Azimuth Distance (km) Brightness Sun altitude
Rises 19:59:40 0° 329° (NNW) 3,759 8.8 -8.0°
Reaches altitude 10° 20:02:15 10° 325° (NW) 2,828 8.0 -8.3°
Maximum altitude 20:08:44 56° 250° (WSW) 1,235 4.7 -9.2°
Drops below altitude 10° 20:15:21 10° 174° (S) 2,894 6.0 -10.0°
Enters shadow 20:16:43 - 172° (S) 3,378 6.3 -10.2°
